Temp
63 63 63 63 63 63 64 64 64 64 64 63 64 64 64 63 64 81 87 94 94 82 83 100 99 101 102 98 100 99 69 65 63 76 75 85 82 89 88 76 76 94 91 94 94
63 63 62 63 63 63 63 63 64 63 63 63 63 63 64 64 78 87 95 84 83 83 96 96 95 99 95 96 96 88 75 68 81 85 77 83 81 79 85 84 85 90 94 95 96
63 62 62 62 62 63 63 63 62 63 63 63 63 63 64 67 83 94 85 83 83 86 101 104 103 99 93 98 93 88 77 86 86 85 87 84 82 86 84 75 77 73 89 92 92
62 62 62 62 62 62 62 63 62 62 62 63 63 63 64 78 78 95 83 83 83 98 99 100 99 93 91 90 87 82 87 88 87 87 86 81 82 81 77 72 77 80 86 92 91
62 61 61 61 61 62 62 61 61 61 62 63 63 63 73 82 89 93 82 85 97 96 97 97 94 94 89 93 90 85 88 92 90 87 86 86 81 83 80 79 81 85 94 92 91
61 61 61 61 61 61 61 61 61 61 61 63 64 63 77 80 108 101 101 98 101 99 98 100 97 99 93 92 89 91 91 91 90 88 87 84 81 83 83 81 83 92 92 92 90
61 61 61 61 61 61 61 60 60 61 62 63 64 74 83 89 107 108 105 101 103 102 98 103 103 97 96 90 94 92 85 89 85 86 84 87 75 78 81 83 88 90 92 92 86
61 61 61 61 61 61 60 59 60 61 64 64 64 79 82 107 109 105 107 103 105 106 104 106 105 98 94 97 92 86 86 70 81 87 87 84 70 80 82 79 82 90 92 91 86
60 60 60 61 60 60 59 59 61 63 65 65 73 81 86 94 99 105 107 100 102 104 104 104 100 93 94 86 82 84 69 74 77 87 84 82 67 68 84 85 85 88 91 90 91
60 60 60 59 59 59 58 58 67 66 69 81 86 83 91 92 101 104 107 105 99 98 95 94 92 86 88 84 71 74 76 80 77 81 84 80 73 71 79 86 83 88 89 89 89
59 60 60 59 58 58 63 81 79 78 84 87 90 90 97 103 106 101 104 100 99 94 84 90 83 79 85 88 86 83 81 79 81 86 82 81 79 77 79 85 83 86 90 90 91
59 59 59 59 58 57 63 82 95 97 85 90 94 97 103 104 92 97 104 92 90 83 88 85 79 88 92 90 86 84 81 77 81 86 83 79 80 76 81 84 86 87 89 88 88
59 59 58 58 57 61 80 89 103 102 85 92 94 95 98 100 93 94 98 94 88 84 85 81 87 93 89 87 83 83 81 77 73 83 74 73 65 63 74 72 90 90 91 93 90
59 59 58 56 58 87 86 96 101 103 78 86 89 95 99 99 90 103 102 95 90 84 87 86 92 89 86 84 86 79 88 86 83 79 65 69 55 61 66 66 76 89 90 92 91
59 58 56 56 69 89 97 105 104 98 63 90 92 106 100 92 95 95 104 95 86 88 88 83 86 86 83 85 89 82 90 85 84 80 73 70 62 67 67 63 63 77 91 93 94
58 57 56 63 72 87 101 103 96 75 65 85 92 89 89 92 94 97 95 98 97 88 90 87 96 91 89 92 91 91 86 85 83 68 64 70 72 70 71 63 63 72 90 93 95
56 54 58 79 91 101 101 94 74 68 90 84 85 89 87 86 88 90 86 85 81 75 76 84 86 92 93 86 90 88 81 65 64 54 49 72 68 76 86 84 89 90 93 94 95
54 52 65 83 95 99 95 82 66 83 85 92 90 89 83 88 87 88 85 81 87 85 81 77 74 86 92 86 83 84 83 66 58 54 62 76 57 75 90 94 92 93 95 95 94
53 79 86 94 96 98 86 73 77 84 89 86 89 83 83 88 88 87 85 84 88 90 77 77 79 93 92 93 90 83 78 89 78 80 74 72 73 86 90 90 90 91 92 92 93
75 88 94 100 99 93 81 68 83 90 89 89 79 85 79 84 84 85 84 90 88 93 94 85 75 89 92 94 93 87 91 76 78 63 62 72 70 69 73 81 88 88 90 90 93
80 87 96 102 99 86 76 83 87 92 90 85 83 83 85 83 84 84 84 91 94 92 94 90 83 82 89 84 82 84 81 83 83 78 67 63 67 70 61 67 86 90 91 92 92
88 84 99 102 82 86 82 88 67 89 93 88 88 86 83 85 84 82 83 88 95 94 85 91 85 75 81 92 94 91 85 86 75 72 77 76 71 87 77 75 91 92 92 94 94
81 92 101 98 77 83 90 87 89 86 88 87 85 88 89 84 78 84 86 89 92 90 85 89 80 71 75 85 88 85 88 88 87 86 73 71 72 91 93 92 94 92 93 92 92
81 83 90 92 91 84 82 83 83 90 85 88 85 87 84 82 86 81 84 91 92 90 75 84 83 77 70 73 79 74 80 83 80 70 75 78 77 78 78 79 90 87 91 92 92
87 85 86 80 85 84 83 82 79 80 89 87 82 83 81 76 80 80 86 88 91 80 87 87 75 79 81 83 78 74 76 76 72 73 70 79 79 77 81 80 75 80 83 91 91
77 76 81 81 85 82 74 79 79 82 83 80 79 83 83 77 77 74 79 82 81 89 85 87 74 77 74 81 81 69 75 74 77 71 74 83 82 88 76 78 73 76 79 81 89
81 83 78 72 82 81 81 79 78 81 81 84 82 80 78 80 81 82 84 85 85 82 82 81 77 72 67 78 77 70 73 72 77 79 80 72 85 87 83 83 76 77 81 81 90
MSLP
1016.71 1016.49 1016.31 1016.13 1015.90 1015.64 1015.42 1015.19 1014.88 1014.58 1014.30 1013.97 1013.66 1013.49 1013.21 1012.85 1011.92 1011.16 1009.12 1007.23 1006.88 1007.19 1007.59 1006.68 1006.24 1005.03 1004.21 1003.41 1003.40 1003.52 1005.30 1006.90 1006.87 1005.44 1005.47 1005.30 1005.24 1005.52 1006.53 1007.82 1007.82 1005.20 1005.22 1005.82 1007.19
1016.72 1016.53 1016.30 1016.08 1015.87 1015.64 1015.40 1015.14 1014.85 1014.63 1014.31 1013.95 1013.64 1013.36 1013.15 1012.92 1011.42 1008.92 1006.71 1006.76 1007.01 1007.23 1007.16 1006.02 1004.78 1004.04 1003.22 1002.86 1003.05 1003.35 1004.67 1005.64 1005.55 1004.94 1005.50 1005.51 1005.84 1006.42 1006.26 1006.54 1006.30 1005.79 1005.91 1006.58 1006.85
1016.79 1016.51 1016.24 1016.01 1015.78 1015.56 1015.31 1015.08 1014.83 1014.51 1014.21 1013.88 1013.57 1013.34 1013.12 1012.73 1010.22 1006.09 1006.02 1006.36 1006.85 1007.14 1006.50 1004.98 1004.14 1003.65 1002.88 1002.14 1002.88 1003.47 1004.24 1004.10 1004.71 1005.18 1005.16 1005.11 1005.99 1006.18 1005.94 1007.54 1007.77 1008.04 1006.41 1007.11 1007.52
1016.79 1016.53 1016.26 1015.90 1015.62 1015.38 1015.16 1014.93 1014.69 1014.46 1014.13 1013.77 1013.48 1013.29 1013.07 1012.08 1008.19 1006.11 1006.50 1006.75 1006.76 1006.75 1006.38 1004.86 1004.11 1003.36 1002.57 1001.96 1003.25 1003.62 1003.60 1003.53 1004.19 1004.90 1005.02 1005.47 1006.19 1006.45 1007.48 1009.01 1008.16 1008.64 1007.65 1006.89 1007.43
1016.85 1016.54 1016.22 1015.88 1015.53 1015.21 1014.98 1014.80 1014.52 1014.22 1013.96 1013.69 1013.38 1013.23 1012.60 1010.01 1006.25 1006.25 1006.54 1006.77 1006.71 1006.73 1005.79 1004.55 1003.75 1002.96 1002.34 1001.74 1002.56 1003.04 1003.23 1002.85 1003.75 1004.54 1004.90 1005.40 1005.83 1006.28 1007.67 1008.34 1007.72 1007.05 1006.36 1006.58 1007.35
1016.80 1016.48 1016.16 1015.83 1015.45 1015.09 1014.79 1014.57 1014.26 1013.94 1013.65 1013.45 1013.27 1013.24 1011.73 1007.69 1004.22 1005.24 1005.78 1006.14 1005.77 1005.81 1005.07 1004.23 1003.42 1002.85 1002.69 1002.10 1002.16 1002.75 1002.91 1002.55 1003.13 1003.82 1004.50 1004.92 1005.84 1006.59 1007.22 1007.15 1007.39 1006.31 1006.08 1006.40 1007.32
1016.80 1016.43 1016.05 1015.69 1015.32 1014.96 1014.60 1014.29 1013.95 1013.56 1013.24 1013.11 1013.10 1012.59 1009.72 1005.76 1004.31 1004.08 1004.80 1005.22 1005.30 1004.93 1004.36 1003.73 1003.39 1003.17 1002.51 1002.10 1002.45 1002.58 1002.66 1002.15 1003.14 1003.38 1004.14 1004.74 1005.99 1006.56 1007.28 1007.06 1005.98 1005.87 1005.69 1005.93 1007.23
1016.70 1016.32 1015.98 1015.56 1015.13 1014.72 1014.36 1013.93 1013.54 1013.18 1012.70 1012.75 1012.95 1011.73 1007.61 1003.78 1004.23 1004.10 1004.10 1004.47 1004.72 1004.35 1004.10 1003.47 1003.30 1003.47 1002.93 1002.37 1001.96 1002.28 1002.19 1002.58 1003.71 1002.96 1003.59 1004.78 1005.57 1006.20 1006.58 1006.66 1005.95 1005.37 1005.32 1005.72 1006.82
1016.63 1016.19 1015.86 1015.47 1015.01 1014.53 1014.03 1013.53 1012.99 1012.69 1012.50 1012.58 1012.22 1010.19 1005.72 1004.44 1004.19 1003.75 1003.63 1003.70 1004.15 1004.16 1003.96 1003.98 1003.95 1003.38 1002.63 1002.02 1001.38 1001.45 1002.14 1002.66 1002.49 1002.87 1003.34 1004.37 1006.15 1006.58 1006.20 1006.26 1005.74 1005.10 1004.83 1005.37 1006.10
1016.51 1016.06 1015.66 1015.28 1014.85 1014.36 1013.63 1013.13 1012.28 1012.35 1012.15 1011.36 1010.01 1008.50 1004.77 1003.42 1003.24 1003.22 1003.40 1003.37 1003.62 1003.77 1003.88 1004.06 1003.79 1003.13 1002.18 1001.30 1001.03 1001.35 1001.61 1001.28 1001.65 1002.61 1002.98 1003.72 1005.29 1006.49 1005.95 1005.47 1005.14 1004.48 1004.27 1004.87 1005.65
1016.26 1015.79 1015.38 1015.01 1014.64 1014.33 1013.24 1011.76 1011.73 1010.72 1009.44 1006.62 1005.28 1003.94 1002.05 1002.21 1002.48 1002.97 1003.22 1003.46 1003.40 1003.56 1003.36 1003.21 1002.95 1002.00 1000.99 1000.31 1000.76 1001.26 1001.10 1000.87 1001.37 1001.79 1002.70 1002.99 1003.65 1004.85 1005.11 1004.79 1004.63 1004.08 1003.61 1003.96 1004.41
1016.02 1015.45 1014.98 1014.62 1014.32 1014.10 1013.80 1010.09 1006.26 1005.51 1005.26 1004.84 1003.98 1002.89 1001.66 1001.76 1002.27 1002.62 1003.00 1003.23 1003.09 1002.93 1002.85 1002.65 1001.73 1001.11 1000.52 1000.17 1000.72 1000.76 1000.39 1000.73 1002.07 1001.79 1002.55 1003.23 1003.22 1003.87 1003.98 1003.56 1003.53 1003.31 1003.20 1003.25 1003.76
1015.67 1015.07 1014.54 1014.20 1013.86 1013.33 1010.52 1007.81 1005.83 1005.31 1004.20 1002.06 1002.41 1001.79 1001.55 1001.78 1001.49 1001.38 1002.49 1002.65 1002.31 1002.39 1002.03 1001.56 1000.29 1000.04 1000.35 1000.00 1000.37 999.94 999.70 1000.57 1001.86 1001.43 1003.28 1004.11 1005.06 1005.31 1005.53 1004.82 1002.82 1002.97 1003.02 1002.70 1003.25
1015.22 1014.65 1014.21 1013.86 1013.63 1009.16 1007.90 1006.74 1006.32 1005.37 1003.56 1000.46 1000.85 1000.79 1000.96 1001.33 1001.10 1000.55 1001.42 1002.15 1001.83 1001.42 1001.22 1000.77 1000.25 999.86 1000.10 999.95 999.82 999.11 999.34 999.86 1000.42 1001.15 1002.85 1004.43 1005.88 1005.82 1005.95 1005.40 1004.96 1002.48 1002.35 1002.24 1002.65
1014.69 1014.12 1013.81 1013.81 1011.72 1007.71 1005.78 1005.42 1005.33 1004.93 1002.02 999.52 999.75 999.72 1000.16 1000.63 999.98 1000.33 1000.97 1001.68 1001.18 1000.74 1000.84 999.99 999.85 999.74 999.58 999.49 999.25 999.58 999.47 1000.13 1000.49 1000.84 1002.12 1004.19 1005.28 1004.71 1005.26 1006.83 1004.64 1003.27 1001.49 1001.55 1001.67
1014.07 1013.61 1013.36 1012.54 1011.35 1007.67 1005.89 1005.58 1005.54 1004.00 1000.05 999.00 999.40 999.70 999.83 1000.25 999.88 999.99 1000.89 1001.51 1000.94 1000.90 1000.35 1000.10 999.46 999.48 999.34 999.17 999.23 999.71 999.78 1000.04 1000.55 1002.77 1003.32 1003.23 1003.27 1003.00 1003.49 1003.10 1003.42 1001.71 1000.72 1000.67 1000.92
1013.40 1013.07 1012.95 1010.05 1006.93 1006.10 1006.04 1005.39 1004.08 1001.52 998.71 998.23 998.57 999.16 999.58 999.62 999.80 999.84 1000.54 1000.90 1000.87 1000.55 999.95 999.61 999.47 999.28 999.38 998.91 998.86 999.31 999.40 1000.18 1001.20 1004.16 1005.48 1002.47 1003.01 1000.52 999.69 1000.36 999.83 999.43 999.13 999.49 1000.22
1012.56 1012.29 1010.29 1008.98 1007.14 1006.34 1005.67 1004.81 1002.39 999.11 997.95 997.98 997.96 998.48 998.94 998.87 999.28 999.27 999.95 1000.13 1000.25 999.97 999.04 998.29 997.91 998.29 998.49 998.82 998.54 998.43 998.51 999.50 999.44 1001.25 1001.21 1001.17 1002.31 999.90 998.77 998.70 999.20 998.99 998.53 999.00 999.77
1011.70 1010.07 1008.52 1006.90 1006.95 1006.23 1005.27 1003.22 1000.29 999.03 998.77 998.52 998.15 997.99 998.23 998.43 998.32 998.46 998.87 998.90 998.65 998.77 998.87 997.80 996.58 996.59 997.61 998.17 998.56 998.29 997.88 997.43 997.75 997.58 997.74 999.98 1000.39 999.19 998.87 998.53 998.44 998.28 998.58 998.95 999.78
1010.79 1007.85 1005.86 1005.71 1006.33 1005.97 1004.64 1002.26 1000.60 1000.07 1000.03 999.54 998.75 998.10 997.72 997.55 997.81 997.93 997.71 997.74 997.80 997.83 997.91 998.00 997.35 996.72 996.72 997.47 997.73 997.86 997.86 997.71 997.46 997.50 997.73 998.07 999.39 1000.40 1000.86 1000.04 999.23 998.65 998.52 999.25 999.94
1009.94 1006.06 1005.20 1005.40 1005.64 1005.09 1003.17 1000.95 1000.16 1000.16 1000.62 1000.02 999.32 998.47 997.78 997.51 998.03 997.36 997.47 997.11 997.05 997.22 997.38 997.81 997.76 997.11 996.80 997.01 997.27 997.45 997.53 997.51 997.55 997.60 997.41 997.92 998.85 1000.14 1001.42 1001.29 999.53 998.94 998.79 999.35 1000.03
1008.50 1004.69 1004.77 1004.91 1004.72 1003.38 1002.13 1000.78 1001.28 1000.70 1000.43 1000.44 1000.13 999.79 999.15 998.50 997.84 997.89 997.38 997.08 997.63 997.52 997.60 997.77 997.84 997.47 997.07 996.81 996.92 996.82 996.89 996.77 996.76 996.74 996.76 996.81 997.60 998.73 1000.37 999.55 998.76 998.60 998.65 999.24 1000.01
1008.98 1004.47 1004.23 1004.37 1003.20 1001.83 1000.76 1000.88 1000.93 1001.06 1000.57 1000.41 1000.13 1000.04 999.71 999.27 999.02 998.52 998.09 998.74 999.10 998.72 998.87 998.53 998.21 997.97 997.45 997.00 996.98 996.79 996.85 997.03 996.98 996.35 996.54 996.49 997.20 997.87 997.95 998.32 998.42 998.33 998.55 999.20 1000.00
1009.45 1004.53 1003.60 1003.87 1003.53 1002.85 1001.96 1001.53 1001.06 1001.15 1001.60 1001.40 1001.29 1001.07 1000.50 1000.00 999.83 999.32 998.95 998.36 998.91 999.42 999.89 999.63 999.08 998.44 998.00 998.45 999.19 999.40 998.68 998.46 998.80 998.25 997.11 996.46 997.29 998.74 998.94 1000.10 999.01 998.67 998.12 999.41 999.65
1008.72 1005.81 1005.44 1003.69 1003.28 1003.26 1003.20 1002.73 1002.23 1001.66 1001.28 1001.90 1001.89 1001.51 1001.18 1000.80 1000.22 999.75 999.37 998.90 998.86 999.49 999.96 999.87 999.53 999.39 998.89 998.85 999.56 1000.42 1000.00 999.36 999.74 999.60 998.95 997.10 997.45 998.67 999.27 1000.68 1000.96 1000.17 998.89 999.57 999.49
1010.34 1009.07 1007.77 1006.20 1004.81 1004.35 1003.76 1003.31 1002.92 1002.44 1002.37 1002.26 1002.44 1001.84 1001.88 1001.81 1002.04 1001.55 1001.12 1000.04 999.41 998.60 999.58 1000.03 999.92 1000.03 999.73 999.42 999.44 1000.56 1001.08 1000.71 1000.54 1000.33 998.76 997.42 997.21 998.15 999.27 998.68 1001.11 1001.08 999.10 999.88 999.65
1012.47 1011.14 1009.64 1007.23 1005.49 1004.65 1003.98 1004.21 1004.19 1004.14 1004.22 1003.76 1003.50 1003.23 1003.03 1003.10 1003.76 1003.57 1002.94 1001.98 1001.06 1000.39 999.75 999.97 1000.14 1000.36 999.75 999.53 999.43 999.07 999.51 999.73 999.00 999.50 998.54 998.38 997.51 998.70 999.78 999.78 1000.72 1000.27 999.12 999.16 999.16
Wind_Speed
11 11 11 11 10 10 10 10 11 11 12 13 13 13 13 15 19 8 11 5 7 13 3 11 13 14 13 10 5 11 4 2 12 8 6 5 3 5 14 14 19 4 13 19 23
12 12 12 11 11 11 11 11 11 11 11 12 13 13 13 12 11 18 15 10 11 10 8 14 13 13 12 5 5 8 2 6 4 7 1 4 4 8 10 16 6 9 17 15 14
13 13 13 12 11 11 11 11 11 11 12 12 12 12 12 13 11 17 6 15 13 11 16 17 16 8 14 6 2 4 6 3 8 9 9 3 1 13 8 7 7 5 9 15 14
13 13 13 13 13 12 12 11 11 12 13 13 12 11 11 7 5 8 8 6 11 12 13 17 10 13 14 6 4 16 2 5 7 6 6 4 5 3 10 3 10 15 22 16 16
14 14 13 13 14 14 13 13 13 13 12 12 11 9 8 10 16 11 11 9 10 11 15 14 13 12 15 10 7 6 13 3 6 4 6 11 10 8 9 15 20 20 14 16 16
15 15 14 14 14 14 14 14 14 14 13 11 9 7 7 15 7 16 12 12 13 15 15 15 11 11 12 14 3 7 10 13 5 4 4 6 3 2 12 20 24 7 13 15 18
15 15 15 15 15 15 16 15 15 15 14 11 7 7 11 17 3 7 13 14 15 15 16 13 12 11 14 12 7 8 12 9 7 5 3 6 7 7 9 15 10 14 12 14 17
17 16 16 16 16 16 14 15 16 14 11 8 6 9 10 10 12 8 11 14 15 13 15 13 4 12 16 12 11 12 15 3 14 8 7 6 7 6 17 17 4 12 12 11 21
17 17 16 16 15 16 16 17 18 13 6 5 7 10 16 7 13 12 9 13 14 16 12 6 9 14 17 15 15 11 4 15 9 3 6 10 6 12 13 13 14 12 14 14 11
18 18 17 14 14 15 19 18 6 6 7 9 11 10 13 13 13 13 12 10 11 12 12 10 11 13 15 13 10 3 9 13 3 4 9 10 9 16 12 17 12 13 12 17 14
17 18 18 15 13 12 14 5 7 7 14 12 13 11 11 15 12 11 10 11 12 13 14 15 12 14 20 13 1 9 11 13 2 6 12 11 14 16 18 17 16 18 16 17 17
18 17 16 14 13 11 8 8 7 12 8 26 21 18 2 12 9 11 12 11 14 14 15 15 14 17 18 6 7 12 16 3 5 5 8 11 12 18 20 20 21 19 15 11 14
18 19 16 14 12 8 12 17 11 12 9 14 22 16 12 8 15 17 17 15 12 15 16 17 20 15 14 8 10 17 18 5 2 15 13 16 9 18 20 14 16 20 16 14 16
21 18 14 12 6 11 13 16 14 11 8 11 19 16 15 11 14 16 17 14 15 13 15 16 17 7 10 13 13 15 6 8 12 6 5 9 3 5 7 16 25 17 20 19 18
20 19 12 7 13 6 8 2 7 6 7 13 13 7 13 16 2 12 13 15 17 12 11 13 13 14 11 14 11 11 8 11 12 14 9 12 4 4 11 2 12 19 20 17 21
20 16 9 6 7 15 9 2 6 8 9 10 10 10 14 15 14 10 11 13 12 13 14 15 14 9 14 12 14 9 13 13 15 12 10 17 10 11 15 18 23 33 26 20 17
20 13 7 10 3 10 8 7 7 10 6 11 14 13 16 16 17 11 11 13 12 10 14 15 15 14 12 16 6 14 14 3 5 7 5 20 12 7 11 19 4 5 12 18 17
21 13 13 9 11 7 6 8 8 9 7 7 1 15 15 15 14 13 12 12 15 17 17 12 15 19 16 15 14 15 14 6 15 10 11 18 4 7 4 9 8 4 6 10 16
23 6 7 8 12 6 8 10 7 10 13 8 7 10 14 15 15 16 13 15 15 18 12 16 14 19 15 15 15 15 15 18 13 18 11 10 16 9 3 8 10 8 10 10 14
6 9 5 7 9 8 8 15 19 7 6 12 13 8 12 16 16 13 13 14 14 13 11 12 13 8 15 16 18 15 14 12 9 10 12 3 9 4 13 12 8 10 11 12 13
6 7 8 8 7 7 9 12 5 4 4 9 12 17 7 12 9 14 15 9 13 8 14 11 13 13 6 6 12 12 13 11 13 11 12 3 4 11 14 26 9 11 13 13 12
8 4 8 8 8 9 11 7 4 8 8 5 9 11 15 17 15 9 16 10 13 4 4 8 8 11 15 11 16 17 17 12 7 10 9 8 10 21 28 36 14 12 13 14 13
8 2 7 8 7 8 8 4 5 9 9 8 9 10 12 13 14 12 13 14 10 11 9 9 6 10 14 14 7 10 7 13 17 14 12 5 6 8 12 11 8 11 14 13 14
7 4 7 8 10 11 12 12 10 7 5 11 9 13 15 12 13 15 15 9 7 2 8 5 14 16 12 4 7 15 21 17 18 11 13 8 10 8 10 18 6 6 13 14 14
5 7 8 6 7 12 12 13 12 13 6 3 7 13 12 13 15 15 16 15 10 7 5 7 14 17 19 15 4 10 14 18 12 18 22 5 8 15 11 2 12 14 6 9 13
8 6 11 12 12 9 8 10 11 9 13 9 12 10 13 7 14 17 19 14 13 10 11 10 14 15 22 23 22 23 10 20 21 14 36 23 12 13 9 13 10 26 11 9 13
9 9 8 10 10 9 6 10 14 12 8 13 13 12 11 10 12 17 17 18 16 17 12 8 8 12 18 18 15 20 16 25 20 24 16 20 10 8 12 6 17 22 20 15 17
Wind_Direction
354 352 348 347 345 341 337 334 331 330 323 318 315 311 312 317 303 233 253 264 176 169 189 258 224 250 237 248 277 270 94 34 295 27 357 308 8 289 128 144 233 284 157 139 144
355 349 346 345 342 338 336 333 328 325 317 312 308 307 313 321 282 259 240 129 137 158 215 233 214 238 250 204 271 332 91 187 254 355 163 271 121 262 187 208 209 121 99 118 158
347 345 342 340 338 336 334 331 326 319 316 310 304 305 310 308 272 257 130 146 159 186 240 251 274 274 274 238 5 344 328 345 322 43 305 198 31 215 248 77 37 7 121 138 164
350 348 343 339 337 335 333 329 323 318 312 304 302 305 309 264 267 72 129 164 162 209 236 261 262 262 271 279 111 276 179 283 38 16 289 102 123 310 67 55 326 243 258 153 176
350 347 345 339 334 331 328 325 320 312 304 298 298 306 281 226 255 138 146 154 182 208 235 250 248 267 273 321 174 47 316 340 81 150 262 160 197 127 145 189 204 244 182 170 146
347 345 342 338 333 329 324 320 316 310 301 293 289 297 248 251 93 139 175 171 205 209 234 251 260 309 310 284 248 6 302 280 140 113 235 246 77 190 159 196 224 151 181 158 168
345 342 339 336 331 325 321 316 311 306 293 278 268 259 260 246 321 171 180 197 212 209 238 238 273 295 281 291 21 278 271 276 113 242 174 201 161 224 117 281 179 185 184 162 161
343 341 338 334 330 323 317 310 306 300 294 254 243 248 262 247 253 214 207 193 207 233 250 288 301 276 280 279 278 247 264 9 228 194 160 215 243 330 158 213 275 187 168 151 169
341 337 334 332 327 322 312 306 298 289 259 207 231 226 259 116 217 217 201 198 201 223 236 310 276 265 267 246 268 208 68 281 151 241 168 204 98 18 247 193 211 198 166 156 166
336 332 330 321 323 321 313 293 305 280 221 209 260 254 248 217 193 196 208 201 201 215 223 221 242 246 243 251 277 247 252 269 76 203 237 208 160 187 248 214 208 225 191 156 172
324 327 323 319 311 321 319 208 206 197 229 231 164 236 135 214 176 182 190 224 197 215 229 219 240 238 247 250 232 304 284 293 110 233 236 253 207 195 208 208 200 218 207 181 184
319 318 313 308 303 309 278 244 338 332 284 223 251 231 304 144 172 194 185 217 210 229 218 246 224 248 265 318 309 281 265 359 301 258 222 316 285 192 197 203 196 214 214 208 166
317 319 306 304 308 274 231 242 271 306 276 269 211 231 197 214 222 194 185 214 221 224 234 235 244 209 245 267 243 247 258 117 225 257 71 21 15 351 319 336 202 203 217 209 172
322 319 308 308 287 220 213 229 261 271 276 217 194 216 216 204 236 247 174 221 240 244 222 244 250 266 270 258 263 281 30 280 230 277 229 128 261 255 335 326 322 211 204 214 174
317 318 301 246 326 248 28 255 208 242 276 126 173 220 202 200 284 187 163 217 244 229 264 243 229 254 232 255 273 302 298 297 274 256 144 197 208 239 153 233 311 290 200 228 179
318 316 307 199 218 262 305 154 237 231 254 154 137 187 190 208 204 140 178 228 252 268 263 258 286 265 248 246 248 283 293 268 261 20 337 300 286 191 175 155 187 243 230 195 219
317 309 250 305 1 195 233 225 221 249 120 157 172 195 212 191 235 160 196 203 234 220 241 241 246 258 260 259 226 238 253 11 276 46 259 289 291 221 189 168 154 234 184 185 188
315 304 208 256 309 251 227 222 260 231 293 48 323 167 214 213 210 183 210 231 214 263 284 239 210 212 213 236 258 236 280 197 273 166 228 209 271 295 357 97 105 182 141 193 161
312 202 235 177 232 225 230 224 266 8 359 3 219 256 192 221 232 201 208 234 235 209 248 282 307 177 208 211 225 257 251 291 295 291 310 122 186 185 258 122 128 127 136 146 155
290 251 95 145 156 220 244 260 300 15 346 304 284 200 261 202 219 235 225 212 231 264 226 277 292 209 188 199 217 249 305 301 316 322 337 66 93 56 349 315 116 137 146 150 167
243 237 123 151 188 233 251 255 339 55 333 292 285 303 295 293 303 231 246 241 234 255 217 242 273 300 213 185 248 215 240 237 256 273 296 259 243 154 169 286 187 159 153 155 163
294 290 135 168 213 217 249 297 342 287 273 261 284 294 305 309 312 248 274 256 359 294 274 256 250 250 243 212 221 247 242 280 245 260 242 295 46 163 176 199 183 153 150 155 162
282 17 150 212 262 287 258 259 278 295 294 281 276 276 279 295 293 296 300 92 275 295 10 314 268 263 274 269 321 282 275 283 299 267 289 279 154 191 179 123 171 151 152 148 152
277 256 154 199 261 275 301 314 291 133 299 278 310 305 300 293 278 277 278 308 123 285 351 307 273 289 282 347 8 317 312 321 330 305 308 274 126 38 28 360 349 79 158 155 154
261 15 15 299 34 347 331 316 307 299 274 274 284 284 273 281 292 280 265 241 223 178 226 256 262 279 284 282 178 315 300 321 309 302 296 336 233 164 141 146 9 317 258 161 158
343 347 348 301 289 295 274 263 284 313 320 318 283 309 308 307 346 333 341 326 321 206 197 246 260 268 274 281 294 167 248 312 269 266 293 286 292 116 159 128 145 243 210 235 171
10 343 300 295 280 301 360 339 335 352 316 301 290 306 296 8 341 319 310 305 302 306 302 286 274 283 279 295 293 271 208 212 233 290 325 326 293 99 7 322 187 217 205 201 178